This is the latest recevied weather packets stored in our database for station/object SP5MRF. If no packets are shown the sender has not sent any weather packets the latest 1 day(s).
| Time | Temp. | Humidity | Pressure | Rain* | Wind** | Luminosity | Snow |
|---|---|---|---|---|---|---|---|
| 1777980837 | 28.33° C | 30% | 1003.4 hPa | 0 mm | 0 m/s | - | - |
| 1777980357 | 28.33° C | 29% | 1003.3 hPa | 0 mm | 0 m/s | - | - |
| 1777979877 | 28.89° C | 30% | 1003.4 hPa | 0 mm | 0 m/s | - | - |
| 1777979397 | 28.89° C | 31% | 1003.4 hPa | 0 mm | 1.34 m/s, 0° | - | - |
| 1777978917 | 28.89° C | 32% | 1003.6 hPa | 0 mm | 0 m/s | - | - |
| 1777978437 | 28.89° C | 33% | 1003.6 hPa | 0 mm | 0 m/s | - | - |
| 1777977957 | 28.33° C | 33% | 1003.7 hPa | 0 mm | 0 m/s | - | - |
| 1777977477 | 28.33° C | 34% | 1003.9 hPa | 0 mm | 0 m/s | - | - |
| 1777976997 | 28.33° C | 34% | 1003.8 hPa | 0 mm | 0 m/s | - | - |
| 1777976517 | 27.78° C | 36% | 1004.1 hPa | 0 mm | 0 m/s | - | - |
| 1777976037 | 27.78° C | 37% | 1004.2 hPa | 0 mm | 0 m/s | - | - |
| 1777975557 | 27.22° C | 37% | 1004.2 hPa | 0 mm | 0 m/s | - | - |
| 1777975077 | 27.22° C | 38% | 1004.4 hPa | 0 mm | 0.89 m/s, 22° | - | - |
| 1777974597 | 26.67° C | 40% | 1004.6 hPa | 0 mm | 0 m/s | - | - |
| 1777974117 | 26.11° C | 41% | 1004.7 hPa | 0 mm | 0 m/s | - | - |
| 1777973637 | 26.11° C | 41% | 1004.8 hPa | 0 mm | 0 m/s | - | - |
| 1777973158 | 26.11° C | 42% | 1004.9 hPa | 0 mm | 0 m/s | - | - |
| 1777972677 | 25.56° C | 44% | 1004.9 hPa | 0 mm | 0 m/s | - | - |
| 1777972197 | 24.44° C | 45% | 1005.2 hPa | 0 mm | 0 m/s | - | - |
| 1777971717 | 23.89° C | 46% | 1005 hPa | 0 mm | 0 m/s | - | - |
| 1777971237 | 23.33° C | 47% | 1005.2 hPa | 0 mm | 0 m/s | - | - |
| 1777970757 | 22.78° C | 48% | 1005.4 hPa | 0 mm | 0 m/s | - | - |
| 1777970277 | 22.78° C | 49% | 1005.3 hPa | 0 mm | 0 m/s | - | - |
| 1777969797 | 22.22° C | 50% | 1005.3 hPa | 0 mm | 0 m/s | - | - |
| 1777969317 | 21.67° C | 51% | 1005.4 hPa | 0 mm | 0 m/s | - | - |
* Rain latest hour (hover to see other rain measurements)
** Current wind speed in m/s (hover to see current wind gust speed)